Fort Campbell, KY

8:57 PM CDT on March 24, 2017 (GMT -0500)
Campbell Army Air Field

Weather History for KHOP - December, 2011

Change the Weather History Date:

Monday, December 5, 2011

  Actual Average Record
Temperature  
Mean Temperature 45 °F -  
Max Temperature 51 °F 50 °F 73 °F (1998)
Min Temperature 39 °F 33 °F 15 °F (2002)
Degree Days  
Heating Degree Days 20    
Moisture  
Dew Point 43 °F    
Average Humidity 100    
Maximum Humidity 100    
Minimum Humidity 100    
Precipitation  
Precipitation 2.10 in - - ()
Sea Level Pressure  
Sea Level Pressure 30.08 in    
Wind  
Wind Speed 5 mph (NNE)    
Max Wind Speed 10 mph    
Max Gust Speed -    
Visibility 7 miles    
Events Rain    
Averages and records for this station are not official NWS values.
T = Trace of Precipitation, MM = Missing Value Source: NWS Daily Summary

Daily Weather History Graph

Daily Weather History Graph

Search for Another Location

Airport or City:

Trip Planner

Search our weather history database for the weather conditions in past years. The results will help you decide how hot, cold, wet, or windy it might be!

Date:

Astronomy

Dec. 05, 2011 Rise Set
Actual Time 6:47 AM CST 4:33 PM CST
Civil Twilight 6:18 AM CST 5:02 PM CST
Nautical Twilight 5:46 AM CST 5:34 PM CST
Astronomical Twilight 5:15 AM CST 6:05 PM CST
Moon 1:26 PM CST (12/5) 2:13 AM CST (12/5)
Length of Visible Light 10h 43m
Length of Day
9h 46m
Waxing Gibbous, 80% of the Moon is Illuminated
Dec 5
Waxing Gibbous
Dec 10
Full
Dec 17
Last Quarter
Dec 24
New
Jan 1
First Quarter

Hourly Weather History & Observations

Time (CST) Temp. Windchill Dew Point Humidity Pressure Visibility Wind Dir Wind Speed Gust Speed Precip Events Conditions
12:25 AM 51.8 °F - 51.8 °F 100% 30.09 in 7.0 mi NNE 4.6 mph - N/A Rain Light Rain
12:40 AM 51.8 °F - 51.8 °F 100% 30.08 in 6.0 mi NNE 5.8 mph - N/A Rain Light Rain
12:55 AM 51.6 °F - 51.6 °F 100% 30.09 in 7.0 mi NNE 4.6 mph - 0.05 in Rain Light Rain
1:55 AM 51.8 °F - 51.8 °F 100% 30.10 in 4.0 mi NE 4.6 mph - 0.14 in Rain Rain
2:11 AM 51.8 °F - 51.8 °F 100% 30.10 in 4.0 mi Calm Calm - N/A Rain Rain
2:29 AM 51.8 °F - 51.8 °F 100% 30.08 in 6.0 mi NNE 6.9 mph - N/A Rain Light Rain
2:55 AM 51.1 °F - 51.1 °F 100% 30.08 in 8.0 mi NNE 5.8 mph - 0.12 in Rain Light Rain
3:55 AM 48.6 °F - 48.6 °F 100% 30.06 in 3.0 mi NNE 4.6 mph - 0.13 in Rain Heavy Rain
3:57 AM 48.2 °F - 48.2 °F 100% 30.07 in 3.0 mi Variable 4.6 mph - N/A Rain Rain
4:55 AM 46.4 °F 43.5 °F 46.4 °F 100% 30.08 in 4.0 mi Variable 5.8 mph - 0.18 in Rain Heavy Rain
5:21 AM 46.4 °F 44.3 °F 46.4 °F 100% 30.10 in 4.0 mi Variable 4.6 mph - N/A Rain Heavy Rain
5:55 AM 46.4 °F 42.4 °F 46.4 °F 100% 30.11 in 4.0 mi North 8.1 mph - 0.26 in Rain Rain
6:30 AM 44.6 °F 40.7 °F 44.6 °F 100% 30.10 in 9.0 mi Variable 6.9 mph - N/A Rain Light Rain
6:33 AM 44.6 °F 42.2 °F 44.6 °F 100% 30.10 in 9.0 mi Variable 4.6 mph - N/A Rain Rain
6:48 AM 44.6 °F 40.2 °F 44.6 °F 100% 30.11 in 9.0 mi North 8.1 mph - N/A Rain Rain
6:53 AM 44.6 °F 40.2 °F 44.6 °F 100% 30.11 in 8.0 mi North 8.1 mph - N/A Rain Rain
6:55 AM 44.4 °F 41.2 °F 44.4 °F 100% 30.11 in 7.0 mi Variable 5.8 mph - 0.12 in Rain Rain
7:30 AM 44.6 °F 40.7 °F 44.6 °F 100% 30.10 in 2.5 mi NNE 6.9 mph - N/A Rain Heavy Rain
7:36 AM 44.6 °F 40.7 °F 44.6 °F 100% 30.10 in 3.0 mi NNE 6.9 mph - N/A Rain Heavy Rain
7:55 AM 44.2 °F 42.7 °F 44.2 °F 100% 30.10 in 3.0 mi Variable 3.5 mph - 0.15 in Rain Heavy Rain
8:55 AM 44.6 °F 40.7 °F 44.6 °F 100% 30.08 in 3.0 mi NE 6.9 mph - 0.10 in Rain Rain
9:06 AM 44.6 °F 40.7 °F 44.6 °F 100% 30.07 in 2.5 mi NE 6.9 mph - N/A Rain Rain
9:11 AM 44.6 °F 41.4 °F 44.6 °F 100% 30.07 in 3.0 mi NE 5.8 mph - N/A Rain Light Rain
9:55 AM 46.0 °F 41.9 °F 46.0 °F 100% 30.04 in 5.0 mi ENE 8.1 mph - 0.06 in   Drizzle
10:31 AM 46.4 °F 42.9 °F 46.4 °F 100% 30.03 in 2.5 mi ENE 6.9 mph - N/A Rain Light Rain
10:39 AM 46.4 °F - 46.4 °F 100% 30.04 in 1.8 mi Calm Calm - N/A Rain Heavy Rain
10:48 AM 46.4 °F - 46.4 °F 100% 30.04 in 1.5 mi Calm Calm - N/A Rain Heavy Rain
10:55 AM 47.1 °F - 47.1 °F 100% 30.03 in 1.8 mi Calm Calm - 0.13 in Rain Rain
11:00 AM 46.4 °F - 46.4 °F 100% 30.03 in 2.0 mi Calm Calm - N/A Rain Heavy Rain
11:20 AM 46.4 °F - 46.4 °F 100% 30.01 in 3.0 mi Calm Calm - N/A Rain Rain
11:41 AM 46.4 °F 44.3 °F 46.4 °F 100% 30.01 in 4.0 mi Variable 4.6 mph - N/A Rain Rain
11:55 AM 46.0 °F 41.9 °F 46.0 °F 100% 30.02 in 4.0 mi West 8.1 mph - 0.19 in Rain Rain
12:13 PM 44.6 °F 40.7 °F 44.6 °F 100% 30.04 in 2.5 mi Variable 6.9 mph - N/A Rain Heavy Rain
12:33 PM 44.6 °F 43.1 °F 44.6 °F 100% 30.02 in 3.0 mi Variable 3.5 mph - N/A Rain Rain
12:46 PM 44.6 °F 41.4 °F 44.6 °F 100% 30.02 in 4.0 mi Variable 5.8 mph - N/A Rain Rain
12:55 PM 43.5 °F 39.4 °F 43.5 °F 100% 30.02 in 6.0 mi Variable 6.9 mph - 0.20 in Rain Light Rain
1:03 PM 42.8 °F 39.3 °F 42.8 °F 100% 30.03 in 9.0 mi Variable 5.8 mph - N/A Rain Light Rain
1:23 PM 42.8 °F 39.3 °F 42.8 °F 100% 30.03 in 9.0 mi Variable 5.8 mph - N/A Rain Light Rain
1:53 PM 41.0 °F 39.0 °F 41.0 °F 100% 30.04 in 10.0 mi Variable 3.5 mph - N/A Rain Light Rain
1:55 PM 41.0 °F 37.1 °F 41.0 °F 100% 30.04 in 10.0 mi Variable 5.8 mph - 0.07 in Rain Light Rain
2:00 PM 41.0 °F 38.0 °F 41.0 °F 100% 30.04 in 7.0 mi Variable 4.6 mph - N/A Rain Rain
2:22 PM 41.0 °F 34.7 °F 41.0 °F 100% 30.04 in 4.0 mi North 10.4 mph - N/A Rain Rain
2:25 PM 41.0 °F 35.8 °F 41.0 °F 100% 30.05 in 4.0 mi North 8.1 mph - N/A Rain Heavy Rain
2:31 PM 41.0 °F 38.0 °F 41.0 °F 100% 30.06 in 4.0 mi Variable 4.6 mph - N/A Rain Rain
2:43 PM 39.2 °F 35.9 °F 39.2 °F 100% 30.06 in 4.0 mi Variable 4.6 mph - N/A Rain Rain
2:51 PM 39.2 °F 35.9 °F 39.2 °F 100% 30.06 in 6.0 mi Variable 4.6 mph - N/A Rain Light Rain
2:55 PM 39.9 °F 35.8 °F 39.9 °F 100% 30.06 in 7.0 mi Variable 5.8 mph - 0.15 in Rain Light Rain
3:14 PM 39.2 °F 35.0 °F 39.2 °F 100% 30.06 in 10.0 mi Variable 5.8 mph - N/A   Drizzle
3:22 PM 39.2 °F 35.9 °F 39.2 °F 100% 30.06 in 10.0 mi Variable 4.6 mph - N/A Rain Light Rain
3:55 PM 40.1 °F 36.9 °F 40.1 °F 100% 30.05 in 10.0 mi NNE 4.6 mph - 0.03 in   Light Drizzle
4:06 PM 41.0 °F 38.0 °F 41.0 °F 100% 30.06 in 10.0 mi Variable 4.6 mph - N/A   Overcast
4:43 PM 41.0 °F 37.1 °F 41.0 °F 100% 30.06 in 10.0 mi Variable 5.8 mph - N/A   Light Drizzle
4:53 PM 41.0 °F - 41.0 °F 100% 30.07 in 10.0 mi Calm Calm - N/A   Light Drizzle
4:55 PM 40.5 °F 37.3 °F 40.5 °F 100% 30.08 in 10.0 mi Variable 4.6 mph - 0.00 in   Light Drizzle
5:24 PM 41.0 °F 36.4 °F 41.0 °F 100% 30.10 in 8.0 mi Variable 6.9 mph - N/A   Drizzle
5:39 PM 39.2 °F 35.9 °F 39.2 °F 100% 30.11 in 7.0 mi Variable 4.6 mph - N/A   Drizzle
5:55 PM 39.4 °F - 39.4 °F 100% 30.11 in 9.0 mi Calm Calm - 0.01 in   Light Drizzle
6:16 PM 39.2 °F 35.9 °F 39.2 °F 100% 30.12 in 10.0 mi Variable 4.6 mph - N/A   Overcast
6:22 PM 39.2 °F 35.0 °F 39.2 °F 100% 30.12 in 10.0 mi Variable 5.8 mph - N/A   Overcast
6:55 PM 39.2 °F 35.0 °F 39.2 °F 100% 30.11 in 10.0 mi North 5.8 mph - 0.00 in   Overcast
7:04 PM 39.2 °F 37.0 °F 39.2 °F 100% 30.11 in 10.0 mi Variable 3.5 mph - N/A   Overcast
7:17 PM 39.2 °F 35.9 °F 39.2 °F 100% 30.12 in 10.0 mi Variable 4.6 mph - N/A   Overcast
7:22 PM 39.2 °F 37.0 °F 39.2 °F 100% 30.12 in 10.0 mi Variable 3.5 mph - N/A   Overcast
7:35 PM 39.2 °F 35.0 °F 39.2 °F 100% 30.12 in 10.0 mi Variable 5.8 mph - N/A   Overcast
7:55 PM 39.6 °F 35.4 °F 39.6 °F 100% 30.11 in 10.0 mi Variable 5.8 mph - N/A   Overcast
8:16 PM 39.2 °F 35.9 °F 39.2 °F 100% 30.12 in 10.0 mi Variable 4.6 mph - N/A   Overcast
8:55 PM 40.3 °F 36.3 °F 40.3 °F 100% 30.12 in 10.0 mi Variable 5.8 mph - N/A   Overcast
9:41 PM 41.0 °F 38.0 °F 41.0 °F 100% 30.12 in 10.0 mi Variable 4.6 mph - N/A   Overcast
9:49 PM 41.0 °F 37.1 °F 41.0 °F 100% 30.12 in 10.0 mi Variable 5.8 mph - N/A   Overcast
9:55 PM 40.3 °F 36.3 °F 40.3 °F 100% 30.12 in 10.0 mi Variable 5.8 mph - 0.01 in   Overcast
10:34 PM 41.0 °F 39.0 °F 41.0 °F 100% 30.12 in 10.0 mi Variable 3.5 mph - N/A   Overcast
10:55 PM 40.3 °F - 40.3 °F 100% 30.11 in 10.0 mi Calm Calm - N/A   Overcast
11:55 PM 40.3 °F 38.2 °F 40.3 °F 100% 30.11 in 10.0 mi Variable 3.5 mph - N/A   Overcast